Flag for Reunion (French) Weather past 2 weeks in Saint-Denis, Reunion (French)

Now
77 °F

Passing clouds.


Feels Like: 79 °F
Forecast: 65 / 76 °F
Wind: 20 mph from East

Location: Saint-Denis / Gillot

Current Time: Aug 21, 2014 at 12:38:41 PM

Latest Report: Aug 21, 2014 at 12:00 PM


Visibility: N/A

Pressure: 30.12 "Hg

Humidity: 61%

Dew point: 63 °F

Location of Saint-DenisLocation

Historic Weather in Saint-Denis — Graph

°F

Saint-Denis temperature yesterday

Maximum temperature yesterday: 79 °F (at 10:30 AM)
Minimum temperature yesterday: 66 °F (at 11:30 PM)
Average temperature yesterday: 72 °F

Past Weeks' High & Low Weather Summary

 TemperatureHumidityPressure
High81 °F (Aug 8, 1:18 PM)94% (Aug 7, 5:30 AM)30.30 "Hg (Aug 7, 5:30 AM)
Low59 °F (Aug 11, 6:00 AM)39% (Aug 21, 9:30 AM)30.09 "Hg (Aug 8, 2:00 PM)
Average71 °F66%30.19 "Hg
* Reported Aug 6 11:00 AM — Aug 21 11:30 AM, Saint-Denis, Weather by CustomWeather, © 2014

Note: Actual official high and low records may vary slightly from our data, if they occured in-between our weather recording intervals... More about our weather records

Advertising

Saint-Denis weather history for previous 24 hours

 ConditionsComfort  
Time TempWeatherWind HumidityBarometerVisibility
11:30 AM
Aug 21
77 °FPassing clouds.20 mph54%30.12 "HgN/A
11:00 AM77 °FPassing clouds.21 mph54%30.15 "HgN/A
10:34 AM77 °FPassing clouds.21 mph54%30.15 "HgN/A
10:00 AM77 °FPassing clouds.16 mph44%30.15 "HgN/A
9:30 AM77 °FPassing clouds.14 mph39%30.15 "HgN/A
9:00 AM75 °FPassing clouds.14 mph50%30.15 "HgN/A
8:30 AM73 °FScattered clouds.15 mph57%30.15 "HgN/A
8:00 AM72 °FScattered clouds.12 mph61%30.15 "HgN/A
7:30 AM70 °FScattered clouds.9 mph64%30.15 "HgN/A
7:00 AM66 °FScattered clouds.7 mph73%30.15 "HgN/A
6:30 AM68 °FScattered clouds.7 mph73%30.15 "HgN/A
6:00 AM68 °FPartly sunny.7 mph73%30.12 "HgN/A
5:30 AM68 °FPartly cloudy.10 mph73%30.12 "HgN/A
5:00 AM68 °FPassing clouds.7 mph69%30.12 "HgN/A
4:30 AM68 °FOvercast.9 mph73%30.12 "HgN/A
4:00 AM66 °FPassing clouds.8 mph78%30.12 "HgN/A
3:30 AM68 °FPassing clouds.9 mph73%30.15 "HgN/A
3:00 AM66 °FPassing clouds.5 mph78%30.15 "HgN/A
2:30 AM68 °FOvercast.5 mph73%30.15 "HgN/A
2:00 AM68 °FPassing clouds.7 mph73%30.15 "HgN/A
1:30 AM68 °FPassing clouds.8 mph69%30.15 "HgN/A
1:00 AM66 °FPassing clouds.8 mph78%30.18 "HgN/A
12:30 AM66 °FPassing clouds.8 mph73%30.18 "HgN/A
12:00 AM66 °FClear.8 mph73%30.18 "HgN/A
11:30 PM
Aug 20
66 °FClear.7 mph68%30.18 "HgN/A
11:00 PM68 °FPassing clouds.12 mph64%30.18 "HgN/A
10:30 PM68 °FPassing clouds.6 mph69%30.18 "HgN/A
10:00 PM68 °FPassing clouds.9 mph69%30.18 "HgN/A
9:30 PM70 °FPassing clouds.10 mph69%30.18 "HgN/A
9:00 PM70 °FPassing clouds.10 mph69%30.21 "HgN/A
8:30 PM70 °FPassing clouds.12 mph69%30.18 "HgN/A
8:00 PM70 °FPassing clouds.13 mph69%30.18 "HgN/A
7:30 PM70 °FPassing clouds.13 mph69%30.18 "HgN/A
7:00 PM70 °FPassing clouds.12 mph69%30.18 "HgN/A
6:30 PM72 °FPassing clouds.12 mph65%30.18 "HgN/A
6:00 PM72 °FPassing clouds.14 mph61%30.15 "HgN/A
5:35 PM73 °FPassing clouds.17 mph57%30.15 "HgN/A
5:00 PM75 °FPassing clouds.16 mph54%30.15 "HgN/A
4:30 PM75 °FPassing clouds.17 mph54%30.15 "HgN/A
4:00 PM77 °FPassing clouds.16 mph51%30.15 "HgN/A
3:30 PM75 °FPassing clouds.21 mph57%30.15 "HgN/A
3:00 PM77 °FPassing clouds.22 mph54%30.15 "HgN/A
2:30 PM77 °FPassing clouds.23 mph57%30.18 "HgN/A
2:00 PM77 °FPassing clouds.22 mph57%30.18 "HgN/A
12:30 PM77 °FPassing clouds.25 mph54%30.21 "HgN/A
12:00 PM79 °FPassing clouds.22 mph48%30.24 "HgN/A
Weather by CustomWeather, © 2014

See weather overviewHow to use our weather pages